Hourly Data Report for September 22, 2017

All times are specified in Local Standard Time (LST). Add 1 hour to adjust for Daylight Saving Time where and when it is observed.

PANGNIRTUNG
NUNAVUT

66°08'36.300" N
65°42'40.500" W
22.60 m
2403049
71826
WXP

Download Data

Hourly Data (September 2017)
Hourly Data Report for September 22, 2017
Temp Definition
°C
Dew Point Temp Definition
°C
Rel Hum Definition
%
Wind Dir Definition
10's deg

Wind Spd Definition
km/h
Visibility Definition
km
Stn Press Definition
kPa
Hmdx Definition


Wind Chill Definition


Weather Definition


TIME
00:00 1.1 -2.0 80 11 3   100.73     LegendNANA
01:00 0.9 -2.5 78 7 6   100.69     LegendNANA
02:00 0.6 -2.9 77 7 12   100.68     LegendNANA
03:00 0.4 -2.7 80 7 10   100.68     LegendNANA
04:00 0.6 -3.1 76 8 7   100.68     LegendNANA
05:00 0.2 -3.4 77 9 6   100.68     LegendNANA
06:00 0.6 -4.3 70 7 7   100.67     LegendNANA
07:00 0.7 -5.5 63 7 12   100.68     LegendNANA
08:00 1.0 -5.7 61 7 12   100.68     LegendNANA
09:00 1.0 -4.8 65 4 11   100.71     LegendNANA
10:00 1.4 -5.6 60 4 8   100.69     LegendNANA
11:00 2.1 -5.6 57 4 11   100.70     LegendNANA
12:00 3.3 -6.5 49 12 1   100.68     LegendNANA
13:00 2.4 -1.9 73 27 13   100.71     LegendNANA
14:00 2.4 -1.7 74 25 13   100.71     LegendNANA
15:00 2.2 -3.1 68 25 16   100.72     LegendNANA
16:00 2.1 -3.9 64 25 21   100.73     LegendNANA
17:00 0.4 -4.3 71 25 9   100.74     LegendNANA
18:00 -0.1 -5.1 69 9 4   100.75   -1 LegendNANA
19:00 -0.8 -5.4 71 19 3   100.75   -2 LegendNANA
20:00 -0.5 -5.0 72 11 9   100.76   -4 LegendNANA
21:00 -0.6 -4.7 73 13 3   100.74   -2 LegendNANA
22:00 -0.9 -5.0 74 12 8   100.72   -4 LegendNANA
23:00 -1.0 -6.0 69 13 5   100.72   -3 LegendNANA

Notes on Data Quality.

Legend

  • E = Estimated
  • M = Missing
  • NA = Not Available
  • ‡ = Partner data that is not subject to review by the National Climate Archives
Date modified: